PST,Max TemperatureF,Mean TemperatureF,Min TemperatureF,Max Dew PointF,MeanDew PointF,Min DewpointF,Max Humidity, Mean Humidity, Min Humidity, Max Sea Level PressureIn, Mean Sea Level PressureIn, Min Sea Level PressureIn, Max VisibilityMiles, Mean VisibilityMiles, Min VisibilityMiles, Max Wind SpeedMPH, Mean Wind SpeedMPH, Max Gust SpeedMPH,PrecipitationIn, CloudCover, Events, WindDirDegrees
2013-11-1,58,51,44,52,49,45,100,86,72,30.30,30.18,29.92,10,4,0,8,2,9,T,7,Fog-Rain,124
2013-11-2,56,50,44,54,46,37,100,76,51,30.06,29.89,29.73,10,7,3,24,12,30,0.32,7,Rain,198
2013-11-3,52,47,41,43,41,38,86,75,63,30.15,30.12,30.07,10,10,7,17,5,21,0.05,7,Rain,230
2013-11-4,50,48,45,47,45,42,100,93,86,30.19,30.16,30.13,10,6,2,7,3,12,0.10,8,Rain,142
2013-11-5,54,50,46,52,48,45,100,92,83,30.26,30.19,30.11,10,6,0,18,7,22,0.10,8,Fog-Rain,184
2013-11-6,54,52,49,52,49,46,100,92,83,30.31,30.24,30.10,10,7,4,10,2,12,0.17,8,Rain,112
2013-11-7,57,53,49,54,47,42,93,85,77,30.13,29.99,29.88,10,9,2,31,12,39,0.30,8,Rain,181
2013-11-8,53,51,48,46,45,43,93,85,77,30.21,30.17,30.14,10,9,4,10,4,12,0.13,8,Fog-Rain,184
2013-11-9,49,46,42,45,43,42,100,90,80,30.14,30.09,30.06,10,6,0,8,4,9,0.00,8,Fog,299
2013-11-10,57,50,43,45,44,42,93,80,66,30.10,30.08,30.06,10,10,6,7,4,8,0.00,6,,292
2013-11-11,60,51,41,45,42,39,100,74,47,30.17,30.10,30.03,10,5,0,28,10,38,0.00,6,Fog,24
2013-11-12,55,52,49,52,49,42,100,83,66,30.43,30.30,30.11,10,8,2,18,8,22,0.23,8,Rain,113
2013-11-13,56,50,43,50,46,42,100,86,72,30.51,30.41,30.32,10,6,0,9,3,12,0.00,6,Fog,274
2013-11-14,51,46,40,46,45,40,100,86,71,30.31,30.19,30.12,10,6,0,8,2,13,0.04,7,Fog-Rain,220
2013-11-15,48,44,39,44,42,39,100,90,80,30.12,29.88,29.53,10,10,9,28,9,33,0.04,8,Rain,193
2013-11-16,50,48,45,46,41,38,86,79,71,29.86,29.70,29.53,10,10,5,18,7,23,0.14,7,Rain,244
2013-11-17,56,51,46,45,43,41,86,76,66,30.00,29.96,29.87,10,10,10,22,11,28,0.00,7,,194
2013-11-18,55,53,51,49,46,42,89,80,71,29.98,29.84,29.73,10,9,6,20,11,29,0.34,8,Rain,172
2013-11-19,54,46,37,52,43,29,93,79,65,30.05,29.82,29.72,10,9,4,23,11,26,0.24,8,Rain,287
2013-11-20,49,40,31,32,29,24,89,71,53,30.44,30.25,30.06,10,10,10,13,4,16,0.00,2,,329
2013-11-21,49,38,26,26,20,8,81,51,21,30.61,30.56,30.45,10,10,10,17,5,21,0.00,0,,276
2013-11-22,50,37,24,28,21,11,100,62,23,30.60,30.52,30.43,10,10,10,26,11,32,0.00,1,,82
2013-11-23,52,43,33,28,21,17,64,45,26,30.41,30.30,30.19,10,10,10,20,9,26,0.00,1,,95
2013-11-24,50,40,29,29,25,21,78,57,36,30.30,30.22,30.19,10,10,10,15,4,19,0.00,0,,108
2013-11-25,52,40,28,31,27,25,92,65,38,30.36,30.33,30.31,10,10,10,13,3,15,0.00,4,,101
2013-11-26,50,40,29,32,30,27,92,69,46,30.30,30.21,30.09,10,9,7,17,3,20,0.00,6,,117
2013-11-27,51,41,30,33,30,28,92,69,46,30.08,30.03,29.98,10,9,7,13,4,15,0.00,4,,129
2013-11-28,53,41,28,35,31,27,96,73,50,30.23,30.13,30.05,10,8,4,9,2,10,0.00,1,,115
2013-11-29,44,36,28,40,35,26,100,85,70,30.39,30.33,30.24,10,7,5,8,2,13,0.02,6,Rain,241
2013-11-30,50,46,41,46,42,39,93,80,66,30.40,30.34,30.23,8,6,5,9,4,12,0.12,8,Rain,120